7M1JBF-13 Weather Reports


time (UTC)temp
F
wind
direction
speed
knots
gust
knots
rain 1hr
in
rain 24hr
in
rain mn
in
humidity
%
barometer
mb
20260508210335 50 262 0.0 0.0 0.00 2.17 0.00 100 1007.4
20260508205341 50 262 0.0 0.0 0.00 2.17 0.00 99 1007.4
20260508204348 50 262 0.0 0.0 0.00 2.17 0.00 99 1007.2
20260508203331 50 262 0.0 0.9 0.00 2.17 0.00 99 1007.0
20260508202335 50 262 0.0 0.0 0.00 2.17 0.00 99 1006.8
20260508201339 50 262 0.0 0.9 0.00 2.17 0.00 99 1006.6
20260508200343 51 262 0.0 0.0 0.00 2.17 0.00 99 1006.3
20260508195347 51 262 0.0 0.0 0.00 2.17 0.00 99 1006.1
20260508194329 51 262 0.0 0.0 0.00 2.17 0.00 99 1006.0
20260508193334 52 262 0.0 0.0 0.00 2.17 0.00 99 1005.8
20260508192335 52 262 0.0 0.0 0.00 2.17 0.00 99 1005.8
20260508191338 52 262 0.0 0.0 0.00 2.17 0.00 99 1005.6
20260508190342 52 262 0.0 0.0 0.00 2.17 0.00 99 1005.4
20260508185344 53 262 0.0 0.0 0.00 2.17 0.00 99 1005.3
20260508184328 53 262 0.0 0.0 0.00 2.17 0.00 99 1005.2
20260508183332 54 262 0.0 0.9 0.00 2.17 0.00 99 1005.4
20260508182336 54 262 0.0 0.9 0.00 2.17 0.00 99 1005.3
20260508181338 54 262 0.0 0.9 0.00 2.17 0.00 99 1005.2
20260508180336 54 297 0.0 0.9 0.00 2.17 0.00 99 1005.3
20260508175338 54 297 0.0 0.0 0.00 2.17 0.00 99 1005.0
20260508174341 55 297 0.0 0.0 0.00 2.17 0.00 99 1005.0
20260508173327 55 297 0.0 0.0 0.00 2.17 0.00 99 1004.8
20260508172353 55 297 0.0 0.0 0.00 2.17 0.00 99 1004.7
20260508171335 55 297 0.0 0.0 0.00 2.17 0.00 99 1004.8
20260508170343 55 297 0.0 0.0 0.00 2.17 0.00 99 1004.7
20260508165325 55 297 0.0 0.0 0.00 2.17 0.00 99 1004.5
20260508164326 56 297 0.0 0.0 0.00 2.17 0.00 99 1004.5
20260508163332 56 297 0.0 0.9 0.00 2.17 0.00 99 1004.4
20260508162358 56 297 0.0 0.0 0.00 2.17 0.00 99 1004.4
20260508161340 56 297 0.0 0.0 0.00 2.17 0.00 99 1004.5
20260508160344 56 297 0.0 0.0 0.00 2.17 0.00 98 1004.2
20260508155330 56 297 0.0 0.0 0.04 2.17 0.00 98 1004.4
20260508154338 56 297 0.0 0.0 0.04 2.17 0.00 98 1004.4
20260508153340 56 297 0.0 0.0 0.08 2.17 0.00 98 1004.3
20260508152342 56 297 0.0 0.0 0.12 2.17 0.00 98 1004.3
20260508151354 56 297 0.0 0.0 0.28 2.17 0.00 98 1004.3
20260508150328 56 297 0.0 0.0 0.31 2.17 0.43 98 1004.3
20260508145329 57 297 0.0 0.9 0.43 2.13 0.43 98 1004.2
20260508144332 57 297 0.0 0.0 0.87 2.13 0.43 97 1004.1
20260508143355 57 297 0.0 0.0 1.06 2.09 0.42 97 1003.8
20260508142336 57 297 0.0 0.0 1.26 2.05 0.41 97 1003.6
20260508141337 58 297 0.0 0.9 1.22 1.89 0.38 97 1003.8
20260508140341 59 297 0.0 0.9 1.46 1.85 0.37 97 1003.7
20260508135342 60 297 0.0 0.0 1.38 1.65 0.33 97 1003.9
20260508134340 60 297 0.0 0.0 1.06 1.26 0.25 97 1003.6
20260508133338 60 298 0.0 0.9 0.79 0.98 0.20 97 1003.6
20260508132343 60 298 0.0 0.0 0.75 0.79 0.16 96 1003.4
20260508131346 61 298 0.0 0.9 0.67 0.67 0.13 96 1003.1
20260508130327 61 267 0.0 0.0 0.39 0.39 0.08 95 1003.2
20260508125329 61 267 0.0 0.0 0.28 0.28 0.06 95 1003.1
20260508124334 62 267 0.0 0.0 0.20 0.20 0.04 93 1002.8
20260508123359 63 267 0.0 0.9 0.20 0.20 0.04 91 1002.7
20260508122358 64 197 0.0 1.7 0.04 0.04 0.01 89 1002.6
20260508121341 64 273 0.0 1.7 0.00 0.00 0.00 88 1002.6
20260508120402 65 273 0.0 0.0 0.00 0.00 0.00 88 1002.5
20260508115341 65 273 0.0 5.2 0.00 0.00 0.00 89 1002.8
20260508114346 65 268 0.0 2.6 0.00 0.00 0.00 95 1002.6
20260508113328 65 282 0.0 0.9 0.00 0.00 0.00 96 1002.4
20260508112331 65 282 0.0 1.7 0.00 0.00 0.00 96 1002.5
20260508111356 65 303 0.0 0.0 0.00 0.00 0.00 96 1002.3
20260508110341 65 303 0.0 0.9 0.00 0.00 0.00 96 1002.2
20260508105346 65 303 0.0 0.0 0.00 0.00 0.00 96 1002.1
20260508104355 65 303 0.0 0.0 0.00 0.00 0.00 96 1002.0
20260508103356 65 303 0.0 0.0 0.00 0.00 0.00 96 1002.2
20260508102342 65 303 0.0 0.0 0.00 0.00 0.00 95 1002.0
20260508101331 65 303 0.0 0.0 0.00 0.00 0.00 95 1001.6
20260508100337 66 303 0.0 0.9 0.00 0.00 0.00 95 1001.4
20260508095342 66 303 0.0 0.9 0.00 0.00 0.00 94 1001.4
20260508094328 66 303 0.0 0.0 0.00 0.00 0.00 94 1001.3
20260508093332 67 303 0.0 0.0 0.00 0.00 0.00 93 1001.3
20260508092339 67 303 0.0 0.9 0.00 0.00 0.00 93 1001.2
20260508091405 67 303 0.0 0.0 0.00 0.00 0.00 92 1001.3
20260508090344 68 303 0.0 0.0 0.00 0.00 0.00 92 1001.5
20260508085328 68 303 0.0 0.9 0.00 0.00 0.00 92 1001.7
20260508084331 68 270 0.0 0.0 0.00 0.00 0.00 91 1001.6
20260508083333 68 270 0.0 1.7 0.00 0.00 0.00 90 1001.8
20260508082336 69 270 0.0 0.9 0.00 0.00 0.00 90 1001.8
20260508081339 69 261 0.0 0.9 0.00 0.00 0.00 89 1002.0
20260508080341 69 261 0.0 0.9 0.00 0.00 0.00 88 1002.0
20260508075357 70 87 0.0 1.7 0.00 0.00 0.00 87 1002.2
20260508074339 72 207 0.0 0.9 0.00 0.00 0.00 83 1002.3
20260508073342 73 275 0.0 0.9 0.00 0.00 0.00 83 1002.3
20260508072344 73 275 0.0 0.0 0.00 0.00 0.00 83 1002.2
20260508071331 72 275 0.0 0.9 0.00 0.00 0.00 84 1002.5
20260508070337 72 275 0.0 0.9 0.00 0.00 0.00 86 1002.5
20260508065338 71 277 0.0 0.9 0.00 0.00 0.00 87 1002.4
20260508064401 70 277 0.0 1.7 0.00 0.00 0.00 88 1002.7
20260508063341 70 274 0.9 3.5 0.00 0.00 0.00 88 1003.1
20260508062401 69 273 1.7 5.2 0.00 0.00 0.00 89 1003.3
20260508061340 69 278 0.9 5.2 0.00 0.00 0.00 90 1003.2
20260508060341 68 289 0.0 1.7 0.00 0.00 0.00 91 1003.4
20260508055342 68 283 0.9 0.9 0.00 0.00 0.00 92 1003.5
20260508054343 68 319 0.9 1.7 0.00 0.00 0.00 91 1003.6
20260508053344 68 284 0.0 2.6 0.00 0.00 0.00 91 1003.8
20260508052406 69 312 0.0 1.7 0.00 0.00 0.00 90 1004.3
20260508051342 69 320 0.0 1.7 0.00 0.00 0.00 88 1004.1
20260508050404 70 279 0.0 2.6 0.00 0.00 0.00 86 1004.7
20260508045345 71 284 0.9 4.3 0.00 0.00 0.00 85 1004.6
20260508044348 72 24 0.9 4.3 0.00 0.00 0.00 82 1004.6
20260508043328 75 253 0.0 0.9 0.00 0.00 0.00 79 1004.8
20260508042328 75 247 0.0 0.9 0.00 0.00 0.00 80 1005.0
20260508041331 73 247 0.0 0.9 0.00 0.00 0.00 82 1005.2
20260508040332 71 234 0.0 0.9 0.00 0.00 0.00 82 1005.6
20260508035335 69 230 0.9 3.5 0.00 0.00 0.00 84 1006.5
20260508034332 69 284 2.6 7.0 0.00 0.00 0.00 83 1006.7
20260508033333 69 299 0.0 3.5 0.00 0.00 0.00 78 1006.4
20260508032356 70 247 1.7 4.3 0.00 0.00 0.00 74 1006.1
20260508031343 71 291 0.9 3.5 0.00 0.00 0.00 70 1006.4
20260508030344 73 294 0.9 2.6 0.00 0.00 0.00 68 1006.1
20260508025347 72 99 0.9 2.6 0.00 0.00 0.00 68 1006.2
20260508024345 74 264 0.9 1.7 0.00 0.00 0.00 66 1006.1
20260508023347 74 237 0.0 1.7 0.00 0.00 0.00 65 1006.2
20260508022406 74 270 0.0 2.6 0.00 0.00 0.00 67 1006.1
20260508021328 74 295 0.0 1.7 0.00 0.00 0.00 65 1006.3
20260508020332 73 271 0.0 1.7 0.00 0.00 0.00 65 1006.3
20260508015335 73 251 0.9 2.6 0.00 0.00 0.00 65 1006.6
20260508014336 73 267 0.0 0.9 0.00 0.00 0.00 64 1007.0
20260508013339 75 343 0.0 1.7 0.00 0.00 0.00 61 1007.0
20260508012341 77 265 0.0 1.7 0.00 0.00 0.00 62 1007.1
20260508011340 77 245 0.0 3.5 0.00 0.00 0.00 59 1007.2
20260508010341 78 284 0.0 1.7 0.00 0.00 0.00 58 1007.3
20260508005400 79 280 0.0 0.9 0.00 0.00 0.00 59 1007.2
20260508004341 78 293 0.9 2.6 0.00 0.00 0.00 59 1007.2
20260508003403 77 299 0.0 1.7 0.00 0.00 0.00 64 1007.4
20260508002343 77 267 0.0 0.9 0.00 0.00 0.00 60 1007.6
20260508001406 77 266 0.0 0.9 0.00 0.00 0.00 58 1007.6
20260508000327 76 266 0.9 2.6 0.00 0.00 0.00 63 1007.2
20260507235331 76 282 0.0 0.9 0.00 0.00 0.00 65 1007.5
20260507234335 74 284 0.0 1.7 0.00 0.00 0.00 68 1007.6
20260507233332 74 285 0.0 1.7 0.00 0.00 0.00 68 1008.0
20260507232334 73 288 0.0 0.9 0.00 0.00 0.00 66 1008.2
20260507231336 72 301 0.0 1.7 0.00 0.00 0.00 68 1008.3
20260507230339 72 322 0.0 1.7 0.00 0.00 0.00 74 1008.4
20260507225341 71 303 0.0 0.9 0.00 0.00 0.00 80 1008.4
20260507224327 70 303 0.0 0.9 0.00 0.00 0.00 85 1008.5
20260507223327 68 303 0.0 0.0 0.00 0.00 0.00 96 1008.7
20260507222329 66 303 0.0 0.0 0.00 0.00 0.00 100 1008.9
20260507221345 65 303 0.0 0.0 0.00 0.00 0.00 100 1008.9
20260507220347 63 304 0.0 0.0 0.00 0.00 0.00 100 1008.8
20260507215333 63 303 0.0 0.0 0.00 0.00 0.00 100 1008.7
20260507214400 63 303 0.0 0.0 0.00 0.00 0.00 100 1008.7
20260507213406 62 304 0.0 0.0 0.00 0.00 0.00 100 1008.7
20260507212351 62 303 0.0 0.0 0.00 0.00 0.00 100 1008.7
20260507211338 62 304 0.0 0.0 0.00 0.00 0.00 100 1008.8